When you browse on this site, cookies collect data to enhance your experience and personalize the content and advertising you see.
Visit our Privacy Policy to learn more. By continuing to use the site, you agree to this use of cookies and data.
EN

Hourly Weather Tarbagatay

Today, 10 August, Monday

Time Temperature Precipitation Wind Pressure Humidity
00:00 +13°C° 0.1 mm 1 mps 682 mmHg 98%
01:00 +13°C° 0 mm 1 mps 682 mmHg 99%
02:00 +13°C° 0.1 mm 1 mps 682 mmHg 99%
03:00 +13°C° 0.1 mm 1 mps 682 mmHg 99%
04:00 +12°C° 0.1 mm 0 mps 682 mmHg 99%
05:00 +13°C° 0.4 mm 1 mps 682 mmHg 99%
06:00 +14°C° 0.4 mm 1 mps 683 mmHg 98%
07:00 +15°C° 0 mm 1 mps 683 mmHg 99%
08:00 +16°C° 0.3 mm 1 mps 683 mmHg 97%
09:00 +16°C° 0.3 mm 2 mps 683 mmHg 94%
10:00 +17°C° 0.3 mm 2 mps 684 mmHg 91%
11:00 +18°C° 1.3 mm 2 mps 684 mmHg 90%
12:00 +18°C° 1.3 mm 2 mps 684 mmHg 90%
13:00 +19°C° 1.3 mm 3 mps 684 mmHg 89%
14:00 +19°C° 1.1 mm 2 mps 684 mmHg 89%
15:00 +19°C° 1.1 mm 2 mps 684 mmHg 88%
16:00 +19°C° 1.1 mm 2 mps 684 mmHg 88%
17:00 +18°C° 0.6 mm 2 mps 684 mmHg 90%
18:00 +17°C° 0.6 mm 2 mps 684 mmHg 92%
19:00 +16°C° 0.6 mm 1 mps 684 mmHg 93%
20:00 +15°C° 0.1 mm 1 mps 684 mmHg 94%
21:00 +14°C° 0.1 mm 1 mps 684 mmHg 95%
22:00 +13°C° 0.1 mm 1 mps 685 mmHg 96%
23:00 +13°C° 0 mm 1 mps 685 mmHg 96%

Tomorrow, 11 August, Tuesday

Time Temperature Precipitation Wind Pressure Humidity
00:00 +13°C° 0 mm 1 mps 685 mmHg 97%
01:00 +11°C° 0 mm 0 mps 685 mmHg 97%
02:00 +11°C° 0 mm 0 mps 685 mmHg 97%
03:00 +11°C° 0 mm 0 mps 685 mmHg 97%
04:00 +10°C° 0 mm 0 mps 685 mmHg 97%
05:00 +12°C° 0 mm 0 mps 686 mmHg 96%
06:00 +13°C° 0 mm 0 mps 686 mmHg 95%
07:00 +14°C° 0 mm 0 mps 687 mmHg 93%
08:00 +18°C° 0.1 mm 1 mps 687 mmHg 85%
09:00 +20°C° 0.1 mm 1 mps 687 mmHg 77%
10:00 +22°C° 0.1 mm 1 mps 688 mmHg 69%
11:00 +23°C° 0.3 mm 1 mps 688 mmHg 63%
12:00 +25°C° 0.3 mm 1 mps 688 mmHg 58%
13:00 +26°C° 0.3 mm 1 mps 688 mmHg 52%
14:00 +26°C° 0.2 mm 1 mps 688 mmHg 52%
15:00 +25°C° 0.2 mm 1 mps 687 mmHg 51%
16:00 +25°C° 0.2 mm 2 mps 687 mmHg 51%
17:00 +23°C° 0 mm 1 mps 687 mmHg 61%
18:00 +20°C° 0 mm 1 mps 687 mmHg 72%
19:00 +16°C° 0 mm 0 mps 686 mmHg 82%
20:00 +15°C° 0 mm 0 mps 686 mmHg 85%
21:00 +14°C° 0 mm 0 mps 686 mmHg 88%
22:00 +13°C° 0 mm 0 mps 686 mmHg 91%
23:00 +13°C° 0 mm 0 mps 686 mmHg 91%

Day after tomorrow, 12 August, Wednesday

Time Temperature Precipitation Wind Pressure Humidity
00:00 +14°C° 0 mm 1 mps 687 mmHg 92%
01:00 +13°C° 0 mm 1 mps 687 mmHg 93%
02:00 +13°C° 0 mm 1 mps 686 mmHg 93%
03:00 +13°C° 0 mm 1 mps 686 mmHg 94%
04:00 +12°C° 0 mm 1 mps 686 mmHg 94%
05:00 +14°C° 0 mm 1 mps 686 mmHg 90%
06:00 +16°C° 0 mm 1 mps 687 mmHg 85%
07:00 +18°C° 0 mm 1 mps 687 mmHg 80%
08:00 +20°C° 0 mm 1 mps 687 mmHg 73%
09:00 +22°C° 0 mm 1 mps 687 mmHg 65%
10:00 +24°C° 0 mm 1 mps 688 mmHg 58%
11:00 +25°C° 0 mm 1 mps 687 mmHg 54%
12:00 +26°C° 0 mm 1 mps 687 mmHg 50%
13:00 +27°C° 0 mm 1 mps 687 mmHg 47%
14:00 +27°C° 0.1 mm 1 mps 686 mmHg 50%
15:00 +27°C° 0.1 mm 1 mps 686 mmHg 53%
16:00 +26°C° 0.1 mm 1 mps 686 mmHg 57%
17:00 +24°C° 0.2 mm 1 mps 685 mmHg 65%
18:00 +22°C° 0.2 mm 1 mps 685 mmHg 73%
19:00 +20°C° 0.2 mm 1 mps 685 mmHg 82%
20:00 +19°C° 0.3 mm 1 mps 684 mmHg 84%
21:00 +19°C° 0.3 mm 1 mps 684 mmHg 86%
22:00 +18°C° 0.3 mm 1 mps 684 mmHg 88%
23:00 +18°C° 0.4 mm 1 mps 684 mmHg 90%

13 August, Thursday

Time Temperature Precipitation Wind Pressure Humidity
00:00 +15°C° 0.4 mm 0 mps 684 mmHg 91%
01:00 +15°C° 0.4 mm 0 mps 683 mmHg 92%
02:00 +15°C° 0.2 mm 0 mps 683 mmHg 93%
03:00 +15°C° 0.2 mm 0 mps 683 mmHg 94%
04:00 +15°C° 0.2 mm 0 mps 682 mmHg 95%
05:00 +15°C° 0.1 mm 0 mps 682 mmHg 94%
06:00 +15°C° 0.1 mm 0 mps 682 mmHg 94%
07:00 +16°C° 0.1 mm 0 mps 683 mmHg 93%
08:00 +16°C° 0.5 mm 0 mps 682 mmHg 93%
09:00 +16°C° 0.5 mm 0 mps 682 mmHg 93%
10:00 +18°C° 0.5 mm 1 mps 682 mmHg 92%
11:00 +18°C° 0.4 mm 1 mps 682 mmHg 92%
12:00 +18°C° 0.4 mm 1 mps 682 mmHg 92%
13:00 +18°C° 0.4 mm 1 mps 682 mmHg 92%
14:00 +18°C° 0 mm 1 mps 682 mmHg 89%
15:00 +18°C° 0 mm 1 mps 682 mmHg 86%
16:00 +17°C° 0 mm 0 mps 682 mmHg 82%
17:00 +16°C° 0 mm 0 mps 682 mmHg 85%
18:00 +15°C° 0 mm 0 mps 682 mmHg 88%
19:00 +14°C° 0 mm 0 mps 681 mmHg 91%
20:00 +14°C° 0 mm 0 mps 681 mmHg 92%
21:00 +13°C° 0 mm 0 mps 681 mmHg 94%
22:00 +13°C° 0 mm 0 mps 681 mmHg 95%
23:00 +12°C° 0 mm 0 mps 681 mmHg 95%

14 August, Friday

Time Temperature Precipitation Wind Pressure Humidity
00:00 +12°C° 0 mm 0 mps 681 mmHg 96%
01:00 +12°C° 0 mm 0 mps 681 mmHg 96%
02:00 +11°C° 0 mm 0 mps 681 mmHg 97%
03:00 +11°C° 0 mm 0 mps 681 mmHg 97%
04:00 +12°C° 0 mm 1 mps 681 mmHg 97%
05:00 +13°C° 0 mm 1 mps 681 mmHg 95%
06:00 +14°C° 0 mm 1 mps 681 mmHg 92%
07:00 +16°C° 0 mm 1 mps 682 mmHg 89%
08:00 +19°C° 0.1 mm 1 mps 682 mmHg 81%
09:00 +21°C° 0.1 mm 1 mps 682 mmHg 73%
10:00 +24°C° 0.1 mm 1 mps 682 mmHg 64%
11:00 +25°C° 0.2 mm 2 mps 682 mmHg 58%
12:00 +26°C° 0.2 mm 2 mps 682 mmHg 52%
13:00 +27°C° 0.2 mm 3 mps 682 mmHg 46%
14:00 +26°C° 0 mm 3 mps 682 mmHg 49%
15:00 +26°C° 0 mm 3 mps 682 mmHg 51%
16:00 +25°C° 0 mm 3 mps 682 mmHg 54%
17:00 +23°C° 0 mm 2 mps 682 mmHg 60%
18:00 +21°C° 0 mm 2 mps 682 mmHg 66%
19:00 +20°C° 0 mm 1 mps 682 mmHg 72%
20:00 +18°C° 0 mm 1 mps 682 mmHg 77%
21:00 +15°C° 0 mm 0 mps 682 mmHg 81%
22:00 +13°C° 0 mm 0 mps 682 mmHg 86%
23:00 +13°C° 0 mm 0 mps 682 mmHg 87%

15 August, Saturday

Time Temperature Precipitation Wind Pressure Humidity
00:00 +12°C° 0 mm 0 mps 682 mmHg 88%
01:00 +12°C° 0 mm 0 mps 683 mmHg 90%
02:00 +12°C° 0 mm 0 mps 683 mmHg 91%
03:00 +11°C° 0 mm 0 mps 683 mmHg 92%
04:00 +11°C° 0 mm 0 mps 683 mmHg 93%
05:00 +13°C° 0 mm 0 mps 684 mmHg 87%
06:00 +15°C° 0 mm 0 mps 684 mmHg 82%
07:00 +17°C° 0 mm 0 mps 685 mmHg 76%
08:00 +19°C° 0 mm 0 mps 685 mmHg 68%
09:00 +21°C° 0 mm 0 mps 685 mmHg 60%
10:00 +24°C° 0 mm 0 mps 686 mmHg 51%
11:00 +26°C° 0 mm 1 mps 685 mmHg 48%
12:00 +27°C° 0 mm 1 mps 685 mmHg 45%
13:00 +28°C° 0 mm 1 mps 685 mmHg 42%
14:00 +27°C° 0 mm 1 mps 685 mmHg 45%
15:00 +25°C° 0 mm 0 mps 684 mmHg 48%
16:00 +24°C° 0 mm 0 mps 684 mmHg 51%
17:00 +22°C° 0 mm 0 mps 684 mmHg 58%
18:00 +22°C° 0 mm 1 mps 684 mmHg 65%
19:00 +19°C° 0 mm 1 mps 683 mmHg 72%
20:00 +19°C° 0 mm 1 mps 683 mmHg 74%
21:00 +18°C° 0 mm 1 mps 683 mmHg 75%
22:00 +16°C° 0 mm 1 mps 683 mmHg 77%
23:00 +16°C° 0 mm 1 mps 682 mmHg 76%
Show more